KINEIS-2E

Last updated on Mon Dec 15 2025 00:02:49 GMT+0000 (Coordinated Universal Time)

1 62931U 25028D 25348.10832654 .00002273 00000+0 33445-3 0 9994 2 62931 97.9226 38.5070 0001734 82.6072 277.5335 14.76378268 45464
UTC large
Height (km)
Speed (km/s)
/
Latitude / Longitude
Inclination (degrees)
Orbital Period (minutes)
Azimuth
Elevation
Range (km)
Doppler Factor

Next 0 passes for location: London (51.5072 / 0.1276)

Sorry there are no passes over London.